TimeCDT,TemperatureF,Dew PointF,Humidity,Sea Level PressureIn,VisibilityMPH,Wind Direction,Wind SpeedMPH,Gust SpeedMPH,PrecipitationIn,Events,Conditions,WindDirDegrees,DateUTC
12:15 AM,53.6,42.8,67,30.20,10.0,NNE,5.8,-,N/A,,Clear,30,2013-09-05 05:15:00
12:35 AM,53.6,44.6,72,30.21,10.0,NE,5.8,-,N/A,,Clear,40,2013-09-05 05:35:00
12:55 AM,53.6,42.8,67,30.21,10.0,NE,6.9,-,N/A,,Clear,40,2013-09-05 05:55:00
1:15 AM,53.6,42.8,67,30.21,10.0,NNE,8.1,-,N/A,,Clear,30,2013-09-05 06:15:00
1:35 AM,53.6,42.8,67,30.21,10.0,NE,8.1,-,N/A,,Clear,40,2013-09-05 06:35:00
1:55 AM,53.6,44.6,72,30.22,10.0,NE,8.1,-,N/A,,Clear,40,2013-09-05 06:55:00
2:15 AM,51.8,42.8,71,30.23,10.0,NNE,8.1,-,N/A,,Clear,30,2013-09-05 07:15:00
2:35 AM,53.6,42.8,67,30.23,10.0,NE,5.8,-,N/A,,Clear,50,2013-09-05 07:35:00
2:55 AM,53.6,42.8,67,30.23,10.0,NE,6.9,-,N/A,,Clear,40,2013-09-05 07:55:00
3:15 AM,51.8,42.8,71,30.24,10.0,NE,4.6,-,N/A,,Clear,40,2013-09-05 08:15:00
3:35 AM,51.8,42.8,71,30.24,10.0,NNE,6.9,-,N/A,,Clear,30,2013-09-05 08:35:00
3:55 AM,51.8,42.8,71,30.24,10.0,NNE,5.8,-,N/A,,Clear,30,2013-09-05 08:55:00
4:15 AM,51.8,42.8,71,30.24,10.0,NNE,6.9,-,N/A,,Clear,30,2013-09-05 09:15:00
4:35 AM,51.8,42.8,71,30.25,10.0,NNE,8.1,-,N/A,,Clear,30,2013-09-05 09:35:00
4:55 AM,51.8,42.8,71,30.26,10.0,NE,5.8,-,N/A,,Clear,40,2013-09-05 09:55:00
5:15 AM,51.8,42.8,71,30.26,10.0,NNE,6.9,-,N/A,,Clear,30,2013-09-05 10:15:00
5:35 AM,51.8,42.8,71,30.27,10.0,NNE,5.8,-,N/A,,Clear,30,2013-09-05 10:35:00
5:55 AM,51.8,42.8,71,30.28,10.0,NE,5.8,-,N/A,,Clear,40,2013-09-05 10:55:00
6:15 AM,50.0,42.8,76,30.29,10.0,NE,6.9,-,N/A,,Clear,40,2013-09-05 11:15:00
6:35 AM,51.8,42.8,71,30.30,10.0,NNE,5.8,-,N/A,,Clear,30,2013-09-05 11:35:00
6:55 AM,51.8,42.8,71,30.31,10.0,NE,5.8,-,N/A,,Clear,40,2013-09-05 11:55:00
7:15 AM,51.8,44.6,76,30.32,10.0,NNE,5.8,-,N/A,,Clear,30,2013-09-05 12:15:00
7:35 AM,53.6,44.6,72,30.31,10.0,NE,4.6,-,N/A,,Clear,40,2013-09-05 12:35:00
7:55 AM,55.4,44.6,67,30.32,10.0,NE,4.6,-,N/A,,Clear,40,2013-09-05 12:55:00
8:15 AM,57.2,44.6,63,30.32,10.0,NE,4.6,-,N/A,,Clear,40,2013-09-05 13:15:00
8:35 AM,57.2,46.4,67,30.32,10.0,NE,6.9,-,N/A,,Clear,50,2013-09-05 13:35:00
8:55 AM,57.2,46.4,67,30.32,10.0,NE,5.8,-,N/A,,Clear,40,2013-09-05 13:55:00
9:15 AM,59.0,46.4,63,30.32,10.0,East,5.8,-,N/A,,Clear,100,2013-09-05 14:15:00
9:35 AM,60.8,46.4,59,30.33,10.0,ESE,8.1,-,N/A,,Clear,110,2013-09-05 14:35:00
9:55 AM,60.8,46.4,59,30.33,10.0,ENE,6.9,-,N/A,,Clear,60,2013-09-05 14:55:00
10:15 AM,60.8,46.4,59,30.33,10.0,ENE,5.8,-,N/A,,Clear,60,2013-09-05 15:15:00
10:35 AM,60.8,46.4,59,30.33,10.0,East,4.6,-,N/A,,Clear,100,2013-09-05 15:35:00
10:55 AM,62.6,46.4,55,30.33,10.0,SE,6.9,-,N/A,,Clear,140,2013-09-05 15:55:00
11:15 AM,62.6,46.4,55,30.33,10.0,East,4.6,-,N/A,,Clear,80,2013-09-05 16:15:00
11:35 AM,62.6,44.6,52,30.33,10.0,ESE,5.8,-,N/A,,Clear,110,2013-09-05 16:35:00
11:55 AM,62.6,44.6,52,30.33,10.0,ENE,6.9,-,N/A,,Clear,60,2013-09-05 16:55:00
12:15 PM,62.6,44.6,52,30.33,10.0,East,6.9,-,N/A,,Clear,80,2013-09-05 17:15:00
12:35 PM,62.6,46.4,55,30.32,10.0,SE,9.2,-,N/A,,Clear,140,2013-09-05 17:35:00
12:55 PM,62.6,44.6,52,30.32,10.0,East,4.6,-,N/A,,Clear,100,2013-09-05 17:55:00
1:15 PM,62.6,44.6,52,30.32,10.0,ESE,8.1,-,N/A,,Clear,110,2013-09-05 18:15:00
1:35 PM,64.4,46.4,52,30.31,10.0,East,6.9,-,N/A,,Clear,90,2013-09-05 18:35:00
1:55 PM,62.6,44.6,52,30.31,10.0,East,6.9,-,N/A,,Clear,100,2013-09-05 18:55:00
2:15 PM,62.6,46.4,55,30.31,10.0,ESE,4.6,-,N/A,,Clear,110,2013-09-05 19:15:00
2:35 PM,62.6,46.4,55,30.30,10.0,ESE,5.8,-,N/A,,Clear,110,2013-09-05 19:35:00
2:55 PM,64.4,46.4,52,30.30,10.0,ENE,6.9,-,N/A,,Clear,70,2013-09-05 19:55:00
3:15 PM,64.4,46.4,52,30.29,10.0,ESE,4.6,-,N/A,,Clear,110,2013-09-05 20:15:00
3:35 PM,64.4,46.4,52,30.29,10.0,SE,8.1,-,N/A,,Clear,140,2013-09-05 20:35:00
3:55 PM,64.4,46.4,52,30.28,10.0,ESE,5.8,-,N/A,,Clear,120,2013-09-05 20:55:00
4:15 PM,62.6,46.4,55,30.29,10.0,SE,6.9,-,N/A,,Clear,140,2013-09-05 21:15:00
4:35 PM,62.6,46.4,55,30.29,10.0,SE,6.9,-,N/A,,Clear,130,2013-09-05 21:35:00
4:55 PM,62.6,46.4,55,30.28,10.0,ESE,8.1,-,N/A,,Clear,120,2013-09-05 21:55:00
5:15 PM,62.6,46.4,55,30.28,10.0,SE,5.8,-,N/A,,Clear,130,2013-09-05 22:15:00
5:35 PM,62.6,46.4,55,30.28,10.0,SE,9.2,-,N/A,,Clear,140,2013-09-05 22:35:00
5:55 PM,60.8,46.4,59,30.28,10.0,SE,8.1,-,N/A,,Clear,130,2013-09-05 22:55:00
6:15 PM,60.8,44.6,55,30.28,10.0,SSE,5.8,-,N/A,,Clear,160,2013-09-05 23:15:00
6:35 PM,60.8,46.4,59,30.27,10.0,SE,5.8,-,N/A,,Clear,130,2013-09-05 23:35:00
6:55 PM,59.0,46.4,63,30.27,10.0,SE,4.6,-,N/A,,Clear,130,2013-09-05 23:55:00
7:15 PM,57.2,46.4,67,30.27,10.0,SSE,4.6,-,N/A,,Clear,150,2013-09-06 00:15:00
7:35 PM,55.4,46.4,72,30.26,10.0,SE,3.5,-,N/A,,Clear,140,2013-09-06 00:35:00
7:55 PM,55.4,46.4,72,30.27,10.0,SSE,4.6,-,N/A,,Clear,160,2013-09-06 00:55:00
8:15 PM,55.4,46.4,72,30.27,10.0,South,4.6,-,N/A,,Clear,170,2013-09-06 01:15:00
8:35 PM,55.4,46.4,72,30.26,10.0,SSE,4.6,-,N/A,,Clear,160,2013-09-06 01:35:00
8:55 PM,55.4,46.4,72,30.26,10.0,South,4.6,-,N/A,,Clear,170,2013-09-06 01:55:00
9:15 PM,53.6,46.4,77,30.26,10.0,SSE,3.5,-,N/A,,Clear,160,2013-09-06 02:15:00
9:35 PM,53.6,46.4,77,30.26,10.0,South,3.5,-,N/A,,Clear,180,2013-09-06 02:35:00
9:55 PM,53.6,46.4,77,30.25,10.0,South,4.6,-,N/A,,Clear,180,2013-09-06 02:55:00
10:15 PM,53.6,46.4,77,30.25,10.0,South,4.6,-,N/A,,Clear,190,2013-09-06 03:15:00
10:35 PM,53.6,46.4,77,30.25,10.0,South,5.8,-,N/A,,Clear,180,2013-09-06 03:35:00
10:55 PM,53.6,46.4,77,30.24,10.0,South,4.6,-,N/A,,Clear,170,2013-09-06 03:55:00
11:15 PM,53.6,48.2,82,30.24,10.0,SSE,5.8,-,N/A,,Clear,160,2013-09-06 04:15:00
11:35 PM,55.4,48.2,77,30.23,10.0,SSE,5.8,-,N/A,,Clear,160,2013-09-06 04:35:00
11:55 PM,55.4,46.4,72,30.24,10.0,South,3.5,-,N/A,,Clear,190,2013-09-06 04:55:00